When you browse on this site, cookies collect data to enhance your experience and personalize the content and advertising you see.
Visit our Privacy Policy to learn more. By continuing to use the site, you agree to this use of cookies and data.
  • Em Portugal
  • Lista de países
  • Para 7 dias
  • Temperatura da água
  • Mapas de satélite
  • Mapa do tempo
  • Widgets de tempo
  • user-avatar
    Iniciar Sessão

    Previsão horária em Porto-Novo

    Hoje, 12 Dezembro, Quarta-feira

    Tempo Temperatura Precipitação Vento Pressão Humidade
    00:00 +28°C° 0 mm 2 m/s 758 mmHg 78%
    01:00 +28°C° 0.5 mm 2 m/s 758 mmHg 80%
    02:00 +28°C° 0.5 mm 2 m/s 758 mmHg 82%
    03:00 +28°C° 0.5 mm 2 m/s 758 mmHg 84%
    04:00 +27°C° 0.2 mm 1 m/s 758 mmHg 85%
    05:00 +27°C° 0.2 mm 1 m/s 758 mmHg 86%
    06:00 +27°C° 0 mm 1 m/s 758 mmHg 85%
    07:00 +29°C° 0 mm 1 m/s 758 mmHg 74%
    08:00 +32°C° 0 mm 1 m/s 759 mmHg 63%
    09:00 +34°C° 0 mm 1 m/s 759 mmHg 52%
    10:00 +36°C° 0 mm 1 m/s 759 mmHg 45%
    11:00 +37°C° 0 mm 1 m/s 758 mmHg 38%
    12:00 +39°C° 0 mm 1 m/s 758 mmHg 30%
    13:00 +39°C° 0 mm 2 m/s 757 mmHg 34%
    14:00 +38°C° 0 mm 3 m/s 757 mmHg 37%
    15:00 +37°C° 0 mm 4 m/s 756 mmHg 40%
    16:00 +36°C° 0 mm 4 m/s 757 mmHg 47%
    17:00 +34°C° 0 mm 4 m/s 757 mmHg 54%
    18:00 +32°C° 0 mm 4 m/s 757 mmHg 61%
    19:00 +32°C° 0 mm 4 m/s 758 mmHg 64%
    20:00 +30°C° 0 mm 4 m/s 758 mmHg 67%
    21:00 +30°C° 0 mm 3 m/s 759 mmHg 70%
    22:00 +30°C° 0 mm 3 m/s 759 mmHg 72%
    23:00 +29°C° 0 mm 3 m/s 759 mmHg 73%

    Amanhã, 13 Dezembro, Quinta-feira

    Tempo Temperatura Precipitação Vento Pressão Humidade
    00:00 +29°C° 0 mm 3 m/s 759 mmHg 74%
    01:00 +29°C° 0 mm 3 m/s 759 mmHg 75%
    02:00 +29°C° 0 mm 3 m/s 758 mmHg 77%
    03:00 +28°C° 0 mm 2 m/s 758 mmHg 79%
    04:00 +28°C° 0 mm 2 m/s 758 mmHg 79%
    05:00 +28°C° 0 mm 2 m/s 759 mmHg 80%
    06:00 +28°C° 0 mm 1 m/s 759 mmHg 81%
    07:00 +30°C° 0 mm 1 m/s 759 mmHg 72%
    08:00 +32°C° 0 mm 1 m/s 760 mmHg 63%
    09:00 +34°C° 0 mm 1 m/s 760 mmHg 54%
    10:00 +36°C° 0 mm 1 m/s 760 mmHg 48%
    11:00 +37°C° 0 mm 1 m/s 759 mmHg 42%
    12:00 +40°C° 0 mm 1 m/s 759 mmHg 36%
    13:00 +39°C° 0 mm 2 m/s 758 mmHg 39%
    14:00 +38°C° 0 mm 3 m/s 757 mmHg 42%
    15:00 +37°C° 0 mm 4 m/s 757 mmHg 45%
    16:00 +36°C° 0 mm 4 m/s 757 mmHg 52%
    17:00 +34°C° 0 mm 4 m/s 757 mmHg 59%
    18:00 +32°C° 0 mm 4 m/s 757 mmHg 66%
    19:00 +32°C° 0 mm 4 m/s 758 mmHg 69%
    20:00 +30°C° 0 mm 4 m/s 758 mmHg 72%
    21:00 +30°C° 0 mm 4 m/s 759 mmHg 74%
    22:00 +30°C° 0 mm 3 m/s 759 mmHg 76%
    23:00 +29°C° 0 mm 3 m/s 759 mmHg 78%

    Depois de amanhã, 14 Dezembro, Sexta-feira

    Tempo Temperatura Precipitação Vento Pressão Humidade
    00:00 +29°C° 0 mm 3 m/s 759 mmHg 80%
    01:00 +29°C° 0 mm 3 m/s 758 mmHg 81%
    02:00 +29°C° 0 mm 2 m/s 758 mmHg 83%
    03:00 +28°C° 0 mm 2 m/s 758 mmHg 84%
    04:00 +28°C° 0 mm 2 m/s 758 mmHg 85%
    05:00 +28°C° 0 mm 2 m/s 758 mmHg 85%
    06:00 +28°C° 0 mm 2 m/s 759 mmHg 86%
    07:00 +30°C° 0 mm 2 m/s 759 mmHg 78%
    08:00 +31°C° 0 mm 2 m/s 760 mmHg 70%
    09:00 +34°C° 0 mm 2 m/s 760 mmHg 61%
    10:00 +36°C° 0 mm 2 m/s 760 mmHg 55%
    11:00 +37°C° 0 mm 2 m/s 759 mmHg 48%
    12:00 +39°C° 0 mm 2 m/s 759 mmHg 41%
    13:00 +38°C° 0.1 mm 3 m/s 758 mmHg 43%
    14:00 +38°C° 0.1 mm 3 m/s 757 mmHg 45%
    15:00 +37°C° 0.1 mm 4 m/s 756 mmHg 46%
    16:00 +35°C° 0 mm 4 m/s 757 mmHg 54%
    17:00 +34°C° 0 mm 5 m/s 757 mmHg 62%
    18:00 +32°C° 0 mm 5 m/s 757 mmHg 70%
    19:00 +32°C° 0 mm 4 m/s 758 mmHg 73%
    20:00 +30°C° 0 mm 4 m/s 759 mmHg 76%
    21:00 +30°C° 0 mm 4 m/s 759 mmHg 78%
    22:00 +30°C° 0 mm 4 m/s 759 mmHg 80%
    23:00 +29°C° 0 mm 4 m/s 759 mmHg 81%

    15 Dezembro, Sábado

    Tempo Temperatura Precipitação Vento Pressão Humidade
    00:00 +29°C° 0 mm 4 m/s 759 mmHg 82%
    01:00 +29°C° 0 mm 3 m/s 758 mmHg 83%
    02:00 +29°C° 0 mm 3 m/s 758 mmHg 84%
    03:00 +28°C° 0 mm 3 m/s 758 mmHg 84%
    04:00 +28°C° 0 mm 2 m/s 758 mmHg 84%
    05:00 +28°C° 0 mm 2 m/s 758 mmHg 84%
    06:00 +28°C° 0 mm 2 m/s 759 mmHg 84%
    07:00 +30°C° 0 mm 2 m/s 759 mmHg 77%
    08:00 +31°C° 0 mm 1 m/s 760 mmHg 69%
    09:00 +33°C° 0 mm 1 m/s 760 mmHg 62%
    10:00 +35°C° 0 mm 2 m/s 760 mmHg 57%
    11:00 +36°C° 0 mm 2 m/s 759 mmHg 53%
    12:00 +37°C° 0 mm 2 m/s 758 mmHg 48%
    13:00 +37°C° 0.3 mm 3 m/s 758 mmHg 48%
    14:00 +37°C° 0.3 mm 3 m/s 757 mmHg 48%
    15:00 +37°C° 0.3 mm 4 m/s 756 mmHg 48%
    16:00 +36°C° 0.1 mm 4 m/s 756 mmHg 55%
    17:00 +34°C° 0.1 mm 4 m/s 757 mmHg 62%
    18:00 +32°C° 0.1 mm 5 m/s 757 mmHg 69%
    19:00 +32°C° 0 mm 4 m/s 758 mmHg 71%
    20:00 +30°C° 0 mm 4 m/s 758 mmHg 74%
    21:00 +30°C° 0 mm 4 m/s 759 mmHg 77%
    22:00 +30°C° 0 mm 4 m/s 758 mmHg 78%
    23:00 +29°C° 0 mm 4 m/s 758 mmHg 80%

    16 Dezembro, Domingo

    Tempo Temperatura Precipitação Vento Pressão Humidade
    00:00 +29°C° 0 mm 4 m/s 758 mmHg 81%
    01:00 +29°C° 0 mm 3 m/s 758 mmHg 83%
    02:00 +29°C° 0 mm 3 m/s 758 mmHg 84%
    03:00 +28°C° 0 mm 3 m/s 757 mmHg 85%
    04:00 +28°C° 0 mm 3 m/s 758 mmHg 85%
    05:00 +28°C° 0 mm 3 m/s 758 mmHg 85%
    06:00 +28°C° 0 mm 3 m/s 758 mmHg 85%
    07:00 +30°C° 0.2 mm 3 m/s 759 mmHg 78%
    08:00 +31°C° 0.2 mm 3 m/s 759 mmHg 70%
    09:00 +34°C° 0.2 mm 3 m/s 760 mmHg 63%
    10:00 +35°C° 0.3 mm 3 m/s 759 mmHg 59%
    11:00 +36°C° 0.3 mm 3 m/s 759 mmHg 54%
    12:00 +37°C° 0.3 mm 4 m/s 758 mmHg 50%
    13:00 +36°C° 0.4 mm 4 m/s 757 mmHg 52%
    14:00 +36°C° 0.4 mm 4 m/s 757 mmHg 54%
    15:00 +35°C° 0.4 mm 5 m/s 756 mmHg 56%
    16:00 +34°C° 0 mm 4 m/s 757 mmHg 61%
    17:00 +33°C° 0 mm 4 m/s 757 mmHg 67%
    18:00 +30°C° 0 mm 4 m/s 757 mmHg 72%
    19:00 +30°C° 0 mm 4 m/s 758 mmHg 74%
    20:00 +30°C° 0 mm 4 m/s 758 mmHg 76%
    21:00 +29°C° 0 mm 4 m/s 759 mmHg 78%
    22:00 +29°C° 0 mm 3 m/s 759 mmHg 79%
    23:00 +29°C° 0 mm 3 m/s 759 mmHg 80%

    17 Dezembro, Segunda-feira

    Tempo Temperatura Precipitação Vento Pressão Humidade
    00:00 +29°C° 0 mm 3 m/s 758 mmHg 81%
    01:00 +29°C° 0 mm 3 m/s 758 mmHg 82%
    02:00 +28°C° 0 mm 3 m/s 758 mmHg 83%
    03:00 +28°C° 0 mm 3 m/s 757 mmHg 84%
    04:00 +28°C° 0 mm 3 m/s 758 mmHg 84%
    05:00 +28°C° 0 mm 3 m/s 758 mmHg 84%
    06:00 +28°C° 0 mm 3 m/s 758 mmHg 84%
    07:00 +30°C° 0.1 mm 3 m/s 759 mmHg 78%
    08:00 +31°C° 0.1 mm 3 m/s 759 mmHg 71%
    09:00 +33°C° 0.1 mm 3 m/s 759 mmHg 65%
    10:00 +34°C° 0.8 mm 3 m/s 759 mmHg 62%
    11:00 +35°C° 0.8 mm 3 m/s 758 mmHg 59%
    12:00 +35°C° 0.8 mm 3 m/s 758 mmHg 56%
    13:00 +35°C° 0.3 mm 3 m/s 757 mmHg 56%
    14:00 +35°C° 0.3 mm 3 m/s 757 mmHg 56%
    15:00 +35°C° 0.3 mm 3 m/s 756 mmHg 56%
    16:00 +34°C° 0.1 mm 3 m/s 757 mmHg 60%
    17:00 +33°C° 0.1 mm 3 m/s 757 mmHg 64%
    18:00 +31°C° 0.1 mm 3 m/s 757 mmHg 68%
    19:00 +30°C° 0 mm 3 m/s 758 mmHg 70%
    20:00 +30°C° 0 mm 3 m/s 758 mmHg 72%
    21:00 +30°C° 0 mm 3 m/s 759 mmHg 74%
    22:00 +29°C° 0.1 mm 3 m/s 759 mmHg 75%
    23:00 +29°C° 0.1 mm 3 m/s 758 mmHg 77%
    Mostrar mais